www.pogodaiklimat.ru

Погода и климат >> Архив погоды >> Канада >> Cambridge Bay Arpt


ПОГОДА в Cambridge Bay Arpt

  • Прогноз погоды в Cambridge Bay Arpt
  • Монитор погоды в Cambridge Bay Arpt
  • Климат города

АРХИВ ПОГОДЫ в Cambridge Bay Arpt

Время (UTC), дата Ветер
(напр.,м/с)
 
Видим.   Явления Облачность Т
(С)
Тd
(С)
f
(%)
Тe
(С)
Тes
(С)
Комфортность P
(гПа)
Po
(гПа)
Тmin
(С)
Tmax
(С)
R
(мм)
R24
(мм)
S
(см)
06 23.04 С 2 24 км ледяные иглы {снег} 1/1 300 м
[Sc]
-25.9 -28.5 79 -33 -33 опасность
обморожения
1034.4 1030.0 -26.0 -19.2 0.0 33
09 23.04 С 3 24 км ясно -28.5 -31.1 78 -38 -38 опасность
обморожения
1034.3 1029.9
12 23.04 СЗ 1 24 км ледяные иглы {снег} ясно -28.8 -31.5 77 -33 -32 опасность
обморожения
1034.1 1029.7 -30.7 -19.2 0.0 33
15 23.04 С 1 24 км ясно -27.7 -30.9 74 -29 -24 1033.5 1029.1
18 23.04 С 1 12 км ледяные иглы {снег} 3/3 100 м
[St]
-24.7 -27.8 75 -26 -20 1033.0 1028.6 -30.7 -24.6 0.0 33
21 23.04 Ю 1 19 км 3/3 100 м
[]
-22.6 -25.5 77 -26 -21 1032.3 1027.9
00 24.04 Ю 1 16 км ледяные иглы {снег} 8/3 50 м
[St Ac trans Ci fib]
-21.9 -24.6 79 -25 -24 1031.2 1026.8 -30.7 -21.7 0.0 37
03 24.04 В 4 19 км 9/9 100 м
[]
-23.7 -26.5 78 -33 -33 опасность
обморожения
1029.9 1025.5
06 24.04 В 2 22 км {снег} 1/0
[Ac trans]
-25.9 -28.8 77 -33 -33 опасность
обморожения
1028.6 1024.2 -30.7 -21.7 0.0 37
09 24.04 СВ 3 24 км 1/0
[]
-29.4 -32.5 74 -38 -38 опасность
обморожения
1027.5 1023.1
12 24.04 В 4 19 км ледяные иглы 3/1 50 м
[St Ac trans]
-29.5 -32.8 73 -40 -40 опасность
обморожения
1026.4 1022.1 -31.2 -21.7 0.0 37
15 24.04 В 4 2400 м 1/1 <50 м
[]
-27.1 -30.3 74 -38 -36 опасность
обморожения
1025.7 1021.4
18 24.04 В 4 19 км ледяные иглы {снег} 1/1 50 м
[St]
-23.6 -26.6 76 -34 -29 опасность
обморожения
1024.6 1020.3 -31.2 -23.6 0.0 37
21 24.04 В 5 19 км ясно -21.3 -24.0 79 -31 -28 опасность
обморожения
1023.9 1019.6
00 25.04 В 4 19 км ледяные иглы {снег} ясно -21.3 -24.0 79 -31 -29 опасность
обморожения
1022.6 1018.3 -31.2 -21.0 0.0 37
03 25.04 В 4 19 км ясно -24.5 -27.3 77 -35 -35 опасность
обморожения
1021.1 1016.8
06 25.04 В 4 16 км ледяные иглы {снег} 3/3 100 м
[Sc]
-26.4 -29.5 75 -37 -37 опасность
обморожения
1019.9 1015.6 -31.2 -21.0 0.0 37
09 25.04 В 5 16 км 3/3 100 м
[]
-27.2 -30.2 76 -39 -39 опасность
обморожения
1018.2 1013.9
12 25.04 В 4 4800 м ледяные иглы {снег} 3/1 100 м
[St Ac trans]
-26.4 -29.5 75 -37 -37 опасность
обморожения
1016.1 1011.8 -27.4 -21.0 0.0 37
15 25.04 В 4 12 км 3/3 100 м
[]
-23.2 -26.0 78 -33 -31 опасность
обморожения
1014.4 1010.1
18 25.04 В 5 24 км ледяные иглы {снег} 4/1 100 м
[St Ac trans]
-19.6 -22.4 78 -30 -27 1012.7 1008.4 -27.4 -19.6 0.0 37
21 25.04 ЮВ 6 24 км 9/9 100 м
[]
-17.3 -20.1 79 -28 -27 1011.1 1006.8
00 26.04 В 5 24 км ледяные иглы {снег} 9/4 1500 м
[Sc Ac As]
-15.6 -18.6 78 -24 -24 1009.6 1005.3 -27.4 -15.6 0.0 37
03 26.04 В 4 24 км 9/9 1500 м
[]
-15.7 -18.3 80 -23 -23 1008.8 1004.6
06 26.04 С 4 16 км {снег} 9/6 1500 м
[Sc Ac As]
-17.7 -20.1 81 -26 -26 1008.2 1004.0 -27.4 -15.3 0.0 200
09 26.04 С 5 16 км 4/4 600 м
[]
-19.6 -22.1 80 -29 -29 1008.9 1004.7
12 26.04 СЗ 5 19 км {снег} 3/3 300 м
[Sc]
-23.0 -26.0 76 -33 -33 опасность
обморожения
1009.6 1005.3 -23.1 -15.3 0.0 37
15 26.04 СЗ 4 6000 м 10/10 100 м
[]
-18.4 -21.5 77 -26 -26 1010.2 1006.0
18 26.04 С 3 24 км в посл. час снег 3/1 200 м
[Sc Ac trans]
-17.3 -21.1 72 -24 -19 1011.1 1006.9 -23.5 -16.8 0.0 37
21 26.04 СЗ 4 24 км 3/3 200 м
[]
-16.5 -20.1 74 -24 -21 1012.2 1008.0
00 27.04 СЗ 4 24 км 5/1 200 м
[St Ac As Ci fib]
-17.4 -21.0 73 -26 -25 1013.0 1008.7 -23.5 -16.4
03 27.04 З 3 24 км 9/0 2000 м
[]
-19.2 -22.0 78 -27 -27 1013.3 1009.0
06 27.04 З 4 19 км 9/1 300 м
[Sc Ac As Cs]
-19.5 -22.4 78 -28 -28 1013.4 1009.2 -23.5 -16.4
09 27.04 З 2 19 км 9/9 300 м
[]
-19.2 -22.0 78 -24 -24 1013.4 1009.1
12 27.04 З 1 16 км 9/9 300 м
[Sc]
-18.7 -21.2 81 -22 -22 1013.2 1008.9 -20.3 -16.4 37
15 27.04 ЮЗ 1 4800 м 9/9 300 м
[]
-17.4 -20.2 79 -20 -20 1013.3 1009.0
18 27.04 СЗ 3 4000 м слабый снег 10/9 300 м
[Sc Ac trans]
-15.7 -18.9 76 -22 -22 1014.0 1009.7 -20.3 -15.7 0.8 37
21 27.04 СЗ 6 19 км 4/4 300 м
[]
-15.7 -19.7 71 -25 -23 1016.2 1012.0
00 28.04 С 5 24 км позёмок {снег} ясно -16.5 -20.1 74 -26 -24 1019.1 1014.8 -19.9 -15.2 0.0 37
03 28.04 СЗ 4 24 км ясно -19.7 -23.1 74 -29 -29 1022.7 1018.4
06 28.04 СЗ 4 24 км 3/1 300 м
[Sc Ac trans]
-23.2 -26.3 76 -33 -33 опасность
обморожения
1025.7 1021.4 -23.2 -15.2 50
09 28.04 СЗ 6 24 км 3/3 300 м
[]
-25.0 -27.9 77 -37 -37 опасность
обморожения
1027.7 1023.4
12 28.04 СЗ 6 24 км ясно -26.1 -29.5 73 -38 -38 опасность
обморожения
1030.0 1025.7 -26.9 -15.2 37
15 28.04 СЗ 5 24 км ясно -23.3 -27.2 70 -34 -31 опасность
обморожения
1031.3 1027.0
18 28.04 З 3 24 км ясно -19.8 -23.6 72 -27 -21 1031.8 1027.5 -26.9 -19.8
21 28.04 З 3 24 км ясно -17.8 -21.4 73 -25 -20 1031.5 1027.2
00 29.04 З 4 24 км 5/0
[Ci fib]
-17.0 -20.1 77 -25 -24 1030.7 1026.4 -26.9 -16.4
03 29.04 З 3 24 км 4/0
[]
-19.6 -22.1 80 -26 -26 1030.0 1025.7
06 29.04 штиль 0 24 км 1/0
[Ac trans]
-22.9 -25.2 81 -23 -23 1029.2 1024.9 -26.9 -16.4 11
09 29.04 С 1 24 км 1/0 2000 м
[]
-26.1 -28.9 77 -30 -30 1028.3 1024.0
12 29.04 С 4 19 км в посл. час туман 4/4 <50 м
[St]
-27.1 -30.3 74 -37 -37 опасность
обморожения
1027.9 1023.6 -28.7 -16.4 37
15 29.04 С 5 24 км 3/3 <50 м
[]
-24.1 -27.1 76 -35 -33 опасность
обморожения
1027.5 1023.2
18 29.04 СВ 6 11 км ледяные иглы ясно -20.9 -23.5 80 -32 -28 опасность
обморожения
1027.1 1022.8 -28.7 -20.9 0.0 37
21 29.04 0 12 км 6/6 100 м
[]
-18.2 -20.9 79 1027.2 1022.9
00 30.04 С 2 24 км ледяные иглы {снег} 4/1 300 м
[St Ac trans]
-17.4 -19.6 83 -22 -20 1027.1 1022.8 -28.7 -17.4 0.0 37

 

Местоположение метеостанции Cambridge Bay Arpt (Канада): широта 69.10 долгота -105.10 высота над уровнем моря 27 м.

В архиве по умолчанию представлена погода в Cambridge Bay Arpt за последнюю неделю. Архивные данные за месяц целиком и за предыдущие месяцы, начиная с января 2011 года, Вы можете получить, выбрав интересующий диапазон дат из раскрывающегося списка и нажав кнопку "Ввод!".

Внимание! Время в таблицах - всемирное. Для получения местного времени необходимо прибавить поправку, которая в Cambridge Bay Arpt равна -7 ч.

Смотрите также архив погоды в соседних городах и на ближайших метеорологических станциях:

Погода в Cape Peel West (Канада) (108 км)
Погода в Ellice River AWS (Канада) (158 км)
Погода в Hat Island (Канада) (223 км)
Погода в Gjoa Haven Climate (Канада) (374 км)
Погода в Kugluktuk (Канада) (432 км)
Погода в Kugluktuk Airport (Канада) (432 км)
Погода в Lupin (Канада) (452 км)
Погода в Lupin (maps) (Канада) (452 км)
Погода в Spence bay (Канада) (454 км)
Погода в Robertson Lake (Канада) (460 км)

Пояснения к столбцам:

Ветер - указаны скорость ветра в м/с - средняя за 10 мин, порывы в срок и между сроками (в фигурных скобках) и направление, откуда дует ветер: С - северный, СВ - северо-восточный, В - восточный, ЮВ - юго-восточный, Ю - южный, ЮЗ - юго-западный, З - западный, СЗ - северо-западный.
Видимость - горизонтальная дальность видимости в метрах или километрах. При видимости от 1 до 10 км при отсутствии осадков обычно наблюдается дымка, при ухудшении видимости до 1 км и менее - туман. В сухую погоду видимость может ухудшаться дымом, пылью или мглою.
Явления - указаны атмосферные явления, наблюдавшиеся в срок или в последний час перед сроком; фигурными скобками обозначены явления, наблюдавшиеся между сроками (за 1-3 часа до срока); квадратными скобками обозначены град или гололедные отложения с указанием их диаметра в мм.
Облачность - указаны через наклонную черту общая и нижняя облачность в баллах и высота нижней границы облаков в метрах; квадратными скобками обозначены формы облаков: Ci - перистые, Cs - перисто-слоистые, Cc - перисто-кучевые, Ac - высококучевые, As - высокослоистые, Sc - слоисто-кучевые, Ns - слоисто-дождевые, Cu - кучевые, Cb - кучево-дождевые. Подробнее классификацию облаков см. в Атласе облаков (PDF).
T - Температура воздуха - температура, измеренная на высоте 2 м над землей.
Td - Температура точки росы - температура, при понижении до которой содержащийся в воздухе водяной пар достигнет насыщения.
f - Относительная влажность воздуха - влажноcть воздуха, измеренная на высоте 2 м над землей.
Te - Эффективная температура - температура, которую ощущает одетый по сезону человек в тени. Характеристика душности погоды. При расчете учитывается влияние влажности воздуха и скорости ветра на теплоощущения человека.
Tes - Эффективная температура на солнце - температура, которую ощущает человек, с поправкой на солнечный нагрев. Характеристика знойности погоды. Зависит от высоты солнца над горизонтом, облачности и скорости ветра. Ночью, в пасмурную погоду, а также при ветре 12 м/с и более поправка равна нулю.
P - Атмосферное давление - приведенное к уровню моря атмосферное давление.
Po - Атмосферное давление - измеренное на уровне метеостанции атмосферное давление.
Tmin - Минимальная температура - минимум температуры воздуха на высоте 2 м над землей.
Tmax - Максимальная температура - максимум температуры воздуха на высоте 2 м над землей.
R - Количество осадков - Количество выпавших осадков за период времени, мм. При наведении курсора мыши на число - период времени, за который выпало указанное количество осадков.
R24 - Количество осадков - Количество выпавших осадков за 24 часа, мм.
S - Снежный покров - Высота снежного покрова, см. При наведении курсора мыши на число - состояние снежного покрова и степень покрытия местности в баллах.